Stündliche Wetter Holubijevychi

Heute, 22 Juni, Dienstag

Zeit Temperatur Niederschläge Wind Luftdruck Luftfeuchtigkeit
00:00 +21°C° 0.2 mm 3 m/S 742 mmHg 77%
01:00 +21°C° 0.2 mm 3 m/S 742 mmHg 78%
02:00 +20°C° 0 mm 3 m/S 742 mmHg 81%
03:00 +20°C° 0.2 mm 3 m/S 742 mmHg 83%
04:00 +20°C° 0.2 mm 3 m/S 742 mmHg 86%
05:00 +19°C° 0.2 mm 3 m/S 742 mmHg 88%
06:00 +21°C° 0 mm 4 m/S 742 mmHg 80%
07:00 +23°C° 0 mm 4 m/S 742 mmHg 73%
08:00 +26°C° 0 mm 4 m/S 742 mmHg 64%
09:00 +27°C° 0 mm 5 m/S 742 mmHg 62%
10:00 +29°C° 0 mm 5 m/S 743 mmHg 59%
11:00 +30°C° 0 mm 5 m/S 743 mmHg 57%
12:00 +32°C° 0 mm 5 m/S 743 mmHg 56%
13:00 +32°C° 0 mm 5 m/S 743 mmHg 54%
14:00 +33°C° 0 mm 5 m/S 743 mmHg 53%
15:00 +32°C° 0 mm 5 m/S 743 mmHg 55%
16:00 +32°C° 0 mm 5 m/S 743 mmHg 56%
17:00 +30°C° 0 mm 5 m/S 743 mmHg 58%
18:00 +29°C° 0.1 mm 5 m/S 743 mmHg 62%
19:00 +27°C° 0.1 mm 4 m/S 743 mmHg 66%
20:00 +25°C° 0.1 mm 4 m/S 743 mmHg 70%
21:00 +24°C° 0 mm 3 m/S 743 mmHg 70%
22:00 +22°C° 0 mm 3 m/S 744 mmHg 71%
23:00 +21°C° 0 mm 2 m/S 744 mmHg 71%

Morgen, 23 Juni, Mittwoch

Zeit Temperatur Niederschläge Wind Luftdruck Luftfeuchtigkeit
00:00 +21°C° 0 mm 2 m/S 744 mmHg 72%
01:00 +21°C° 0 mm 2 m/S 743 mmHg 73%
02:00 +21°C° 0 mm 2 m/S 743 mmHg 73%
03:00 +21°C° 0.1 mm 2 m/S 743 mmHg 76%
04:00 +21°C° 0.1 mm 2 m/S 743 mmHg 78%
05:00 +21°C° 0.1 mm 3 m/S 743 mmHg 80%
06:00 +22°C° 0 mm 3 m/S 743 mmHg 76%
07:00 +25°C° 0 mm 3 m/S 743 mmHg 72%
08:00 +26°C° 0 mm 3 m/S 743 mmHg 69%
09:00 +28°C° 0 mm 3 m/S 743 mmHg 64%
10:00 +29°C° 0 mm 3 m/S 744 mmHg 59%
11:00 +30°C° 0 mm 3 m/S 744 mmHg 54%
12:00 +31°C° 0 mm 3 m/S 744 mmHg 52%
13:00 +33°C° 0 mm 3 m/S 744 mmHg 50%
14:00 +33°C° 0 mm 3 m/S 744 mmHg 47%
15:00 +33°C° 0 mm 3 m/S 744 mmHg 49%
16:00 +33°C° 0 mm 3 m/S 744 mmHg 51%
17:00 +33°C° 0 mm 3 m/S 744 mmHg 52%
18:00 +30°C° 0 mm 3 m/S 745 mmHg 59%
19:00 +28°C° 0 mm 3 m/S 745 mmHg 65%
20:00 +26°C° 0 mm 3 m/S 745 mmHg 71%
21:00 +25°C° 0.1 mm 2 m/S 745 mmHg 73%
22:00 +25°C° 0.1 mm 2 m/S 745 mmHg 75%
23:00 +24°C° 0.1 mm 1 m/S 745 mmHg 77%

übermorgen, 24 Juni, Donnerstag

Zeit Temperatur Niederschläge Wind Luftdruck Luftfeuchtigkeit
00:00 +24°C° 0 mm 2 m/S 745 mmHg 79%
01:00 +23°C° 0 mm 2 m/S 745 mmHg 81%
02:00 +23°C° 0 mm 2 m/S 746 mmHg 83%
03:00 +23°C° 0 mm 2 m/S 745 mmHg 83%
04:00 +22°C° 0 mm 3 m/S 745 mmHg 84%
05:00 +24°C° 0 mm 3 m/S 745 mmHg 84%
06:00 +25°C° 0 mm 4 m/S 745 mmHg 78%
07:00 +27°C° 0 mm 4 m/S 745 mmHg 72%
08:00 +28°C° 0 mm 5 m/S 745 mmHg 66%
09:00 +30°C° 0 mm 5 m/S 745 mmHg 61%
10:00 +32°C° 0 mm 5 m/S 745 mmHg 56%
11:00 +33°C° 0 mm 5 m/S 745 mmHg 51%
12:00 +34°C° 0 mm 5 m/S 745 mmHg 50%
13:00 +34°C° 0 mm 5 m/S 745 mmHg 48%
14:00 +34°C° 0 mm 5 m/S 745 mmHg 47%
15:00 +34°C° 0 mm 5 m/S 745 mmHg 50%
16:00 +34°C° 0 mm 4 m/S 745 mmHg 52%
17:00 +33°C° 0 mm 4 m/S 745 mmHg 55%
18:00 +30°C° 0 mm 4 m/S 745 mmHg 63%
19:00 +29°C° 0 mm 4 m/S 745 mmHg 70%
20:00 +27°C° 0 mm 3 m/S 745 mmHg 78%
21:00 +26°C° 0 mm 3 m/S 745 mmHg 81%
22:00 +25°C° 0 mm 3 m/S 745 mmHg 84%
23:00 +25°C° 0 mm 3 m/S 744 mmHg 87%

25 Juni, Freitag

Zeit Temperatur Niederschläge Wind Luftdruck Luftfeuchtigkeit
00:00 +24°C° 0 mm 3 m/S 744 mmHg 88%
01:00 +24°C° 0 mm 3 m/S 745 mmHg 90%
02:00 +22°C° 0 mm 3 m/S 745 mmHg 91%
03:00 +22°C° 0 mm 3 m/S 745 mmHg 91%
04:00 +22°C° 0 mm 3 m/S 745 mmHg 92%
05:00 +22°C° 0 mm 3 m/S 745 mmHg 92%
06:00 +25°C° 0 mm 3 m/S 745 mmHg 84%
07:00 +26°C° 0 mm 4 m/S 745 mmHg 75%
08:00 +28°C° 0 mm 4 m/S 745 mmHg 67%
09:00 +29°C° 0 mm 4 m/S 745 mmHg 61%
10:00 +30°C° 0 mm 4 m/S 745 mmHg 55%
11:00 +31°C° 0 mm 3 m/S 745 mmHg 49%
12:00 +33°C° 0 mm 3 m/S 745 mmHg 49%
13:00 +33°C° 0 mm 3 m/S 744 mmHg 48%
14:00 +32°C° 0 mm 2 m/S 744 mmHg 47%
15:00 +33°C° 0 mm 3 m/S 744 mmHg 50%
16:00 +33°C° 0 mm 3 m/S 744 mmHg 52%
17:00 +32°C° 0 mm 4 m/S 744 mmHg 55%
18:00 +30°C° 0 mm 3 m/S 744 mmHg 61%
19:00 +28°C° 0 mm 3 m/S 743 mmHg 67%
20:00 +27°C° 0 mm 2 m/S 743 mmHg 72%
21:00 +26°C° 0.1 mm 2 m/S 743 mmHg 74%
22:00 +25°C° 0.1 mm 2 m/S 743 mmHg 75%
23:00 +25°C° 0.1 mm 2 m/S 743 mmHg 76%

26 Juni, Samstag

Zeit Temperatur Niederschläge Wind Luftdruck Luftfeuchtigkeit
00:00 +24°C° 0.1 mm 2 m/S 743 mmHg 80%
01:00 +24°C° 0.1 mm 3 m/S 743 mmHg 83%
02:00 +24°C° 0.1 mm 3 m/S 743 mmHg 86%
03:00 +22°C° 0.2 mm 3 m/S 743 mmHg 87%
04:00 +22°C° 0.2 mm 3 m/S 743 mmHg 89%
05:00 +22°C° 0.2 mm 3 m/S 743 mmHg 91%
06:00 +25°C° 0 mm 3 m/S 743 mmHg 82%
07:00 +27°C° 0 mm 3 m/S 743 mmHg 73%
08:00 +28°C° 0 mm 3 m/S 743 mmHg 64%
09:00 +30°C° 0 mm 3 m/S 743 mmHg 58%
10:00 +32°C° 0 mm 4 m/S 743 mmHg 51%
11:00 +33°C° 0 mm 4 m/S 743 mmHg 45%
12:00 +34°C° 0 mm 4 m/S 743 mmHg 43%
13:00 +34°C° 0 mm 3 m/S 743 mmHg 42%
14:00 +34°C° 0 mm 3 m/S 743 mmHg 41%
15:00 +34°C° 0 mm 3 m/S 743 mmHg 42%
16:00 +34°C° 0 mm 3 m/S 742 mmHg 43%
17:00 +34°C° 0 mm 2 m/S 742 mmHg 45%
18:00 +30°C° 1 mm 3 m/S 742 mmHg 57%
19:00 +27°C° 1 mm 3 m/S 743 mmHg 70%
20:00 +24°C° 1 mm 3 m/S 743 mmHg 82%
21:00 +22°C° 0.7 mm 3 m/S 743 mmHg 82%
22:00 +22°C° 0.7 mm 3 m/S 742 mmHg 82%
23:00 +21°C° 0.7 mm 2 m/S 742 mmHg 82%

27 Juni, Sonntag

Zeit Temperatur Niederschläge Wind Luftdruck Luftfeuchtigkeit
00:00 +20°C° 0.2 mm 2 m/S 742 mmHg 85%
01:00 +20°C° 0.2 mm 2 m/S 742 mmHg 88%
02:00 +19°C° 0.2 mm 2 m/S 743 mmHg 91%
03:00 +19°C° 0 mm 2 m/S 743 mmHg 91%
04:00 +20°C° 0 mm 2 m/S 742 mmHg 90%
05:00 +20°C° 0 mm 2 m/S 742 mmHg 90%
06:00 +21°C° 0 mm 2 m/S 743 mmHg 84%
07:00 +24°C° 0 mm 2 m/S 743 mmHg 78%
08:00 +25°C° 0 mm 2 m/S 743 mmHg 72%
09:00 +26°C° 0 mm 2 m/S 743 mmHg 68%
10:00 +28°C° 0 mm 2 m/S 743 mmHg 63%
11:00 +29°C° 0 mm 2 m/S 743 mmHg 59%
12:00 +29°C° 1 mm 3 m/S 743 mmHg 60%
13:00 +29°C° 1 mm 3 m/S 743 mmHg 62%
14:00 +29°C° 1 mm 4 m/S 743 mmHg 63%
15:00 +27°C° 1.4 mm 4 m/S 743 mmHg 72%
16:00 +25°C° 1.4 mm 5 m/S 743 mmHg 80%
17:00 +22°C° 1.4 mm 6 m/S 743 mmHg 88%
18:00 +22°C° 0.3 mm 5 m/S 743 mmHg 90%
19:00 +21°C° 0.3 mm 5 m/S 743 mmHg 92%
20:00 +21°C° 0.3 mm 4 m/S 744 mmHg 94%
21:00 +20°C° 0 mm 4 m/S 744 mmHg 95%
22:00 +19°C° 0 mm 4 m/S 744 mmHg 95%
23:00 +19°C° 0 mm 4 m/S 744 mmHg 96%
Mehr zeigen

Wir brauchen deine Erlaubnis

Meteoprog und unser Service Anbieter werden persönliche Daten aufbewahren, so wie Cookies, Geräte Bezeichnung oder ähnliche Technologien von deinem Gerät und Prozess, so wie Persönliche Daten Inhalte und Werbungen, genauso wie social Media und den Verkehr zu analysieren.

  • Aufbewahrung und/oder Zugang zu deiner Geräte Informationen.

    Cookies, Geräte Bezeichnung oder andere Informationen, können aufbewahrt oder Zugang zu deinem Gerät erhalten, für den Grund, der oben angegeben wird.

  • Personalisierte Werbung und Inhalte, Messungen, Einblick in das Publikum und Produkt Entwicklung.

    Werbungen und Inhalte können personalisiert werden, basierend auf ein Profil. Mehr Daten können besser personalisierte Werbungen und Inhalte hinzufügen. Werbung und Inhalte können gezeigt und gemessen werden. Einblicke über das Publikum, welche die Werbung gesehen haben und den Inhalt, können abgeleitet werden. So wie Daten können genutzt werden, um es zu verbessern oder die Benutzer Erfahrung zu verbessern das System und die Software.

Wenn du “Ich stimme zu” klickst, erlaubst du uns, die Cookies zu benutzen die Geräte Bezeichnung, den Web oder ähnliche Technologien zu benutzen. Deine Settings, können in deinem Gerät bei deinem Browser geändert werden.

Für den bestimmten Zweck, berechtigten Interessen beruhen darauf, mehr als auf den Inhalt. Du kannst mehr darüber in unseren Privaten und Cookie Politik lesen.